الصفحة الرئيسية
METAR-TAF:

METAR-TAF

مطار :

Fort Morgan, كولورادو, الولايات المتحدة

دائرة عرض: 40-20-02N, خط طول: 103-48-15W, ارتفاع: 1393 متر

مراقبة الطقس الحالي

تاريخ ووقت الإصدار 31 دقيقة قبل الساعة 18:35UTC
ريح 8 عقدة من الجنوب الشرقي
درجة الحرارة 27°درجة مئوية
الرطوبة 37%
ضغط 1020 hPa
الرؤية: 16.1 كم
سماء صافية

METAR: KFMM 141835Z AUTO 14008KT 10SM CLR 27/11 A3011 RMK AO2 LTG DSNT N T02720114

زمن: 13:06 (19:06 UTC)


TAF: مفقودة

أرصاد الطقس والتوقعات من أكثر من 4000 مطار (تقارير الطقس للمطار METAR والتنبؤ بالطقس بالمطارTAF).

المحطات المتاحة هي النقط الصفراء والحمراء على الخريطة.

حرك المؤشر فوق النقطة لمعرفة اسم المحطة.

ثم انقر لمعرفة أرصاد وتوقعات الطقس.

لتغيير الخارطة: اضغط على الأزرار الخضراء مع رمز الصليب الأسود للتكبير. على الزر الأخضر مع شرطة للتصغير، أو على الأسهم الخضراء للخرائط المجاورة.


METAR-TAF: